�N����,����,�~����,�C��,���x,�C��,����,���ϕ���,�ő�u�ԕ���,�ő厞����,���˗�,�I�_���x,�n�����x,�ő啗���N��,DTYPE
"17/08/27","00:10",0.0,21.6,91.2,1008.6,324.1,1.5,2.2,344.8,0.00,20.1,25.4,"00:08:24",1
"17/08/27","00:20",0.0,21.7,90.9,1008.1,326.7,1.5,2.9,334.3,0.00,20.2,25.7,"00:11:44",1
"17/08/27","00:30",0.0,21.7,90.9,1008.6,325.7,1.5,2.1,334.8,0.00,20.2,25.5,"00:24:32",1
"17/08/27","00:40",0.0,21.7,90.8,1008.3,329.1,1.6,2.7,328.0,0.00,20.2,25.5,"00:38:24",1
"17/08/27","00:50",0.0,21.8,91.0,1008.6,328.8,1.8,2.7,337.7,0.00,20.3,25.4,"00:40:16",1
"17/08/27","01:00",0.0,21.8,90.3,1008.6,339.8,1.2,1.9,308.7,0.00,20.2,25.3,"00:50:56",1
"17/08/27","01:10",0.0,21.6,90.2,1008.3,340.1,1.1,2.0,335.2,0.00,20.0,25.3,"01:06:16",1
"17/08/27","01:20",0.0,21.3,90.4,1008.6,327.7,1.3,1.8,313.9,0.00,19.7,25.2,"01:10:32",1
"17/08/27","01:30",0.0,21.2,91.0,1008.6,341.7,1.0,1.6,334.8,0.00,19.7,25.2,"01:20:48",1
"17/08/27","01:40",0.0,20.9,90.9,1008.8,327.7,1.2,2.0,332.4,0.00,19.4,25.3,"01:31:20",1
"17/08/27","01:50",0.0,20.7,91.4,1008.8,335.8,1.1,1.9,336.3,0.00,19.3,25.1,"01:42:24",1
"17/08/27","02:00",0.0,20.5,92.2,1008.8,325.5,1.0,1.6,334.1,0.00,19.2,25.0,"01:55:28",1
"17/08/27","02:10",0.0,20.4,92.4,1009.0,328.6,1.2,2.0,338.9,0.00,19.2,24.9,"02:03:12",1
"17/08/27","02:20",0.0,20.2,92.7,1008.8,314.3,0.8,1.4,309.0,0.00,19.0,25.0,"02:12:48",1
"17/08/27","02:30",0.0,20.1,93.2,1009.0,309.4,0.8,1.7,338.9,0.00,19.0,24.9,"02:26:00",1
"17/08/27","02:40",0.0,20.0,93.3,1008.6,298.4,0.8,1.3,290.1,0.00,18.9,24.6,"02:32:32",1
"17/08/27","02:50",0.0,20.2,93.8,1008.8,337.9,1.2,2.1,343.6,0.00,19.2,24.8,"02:47:20",1
"17/08/27","03:00",0.0,20.1,93.8,1008.8,324.1,1.1,1.6,328.4,0.00,19.1,24.7,"02:50:32",1
"17/08/27","03:10",0.0,20.1,94.0,1008.6,332.8,1.2,2.0,336.9,0.00,19.1,24.7,"03:02:24",1
"17/08/27","03:20",0.0,20.0,93.7,1008.8,309.1,0.8,1.6,344.2,0.00,19.0,24.8,"03:10:16",1
"17/08/27","03:30",0.0,19.8,94.1,1008.8,313.8,0.6,1.3,318.5,0.00,18.9,24.5,"03:28:32",1
"17/08/27","03:40",0.0,19.6,94.2,1008.6,296.8,1.0,1.3,315.9,0.00,18.7,24.4,"03:36:56",1
"17/08/27","03:50",0.0,19.7,94.4,1009.0,310.3,1.2,2.0,328.1,0.00,18.8,24.4,"03:42:08",1
"17/08/27","04:00",0.0,19.8,94.6,1009.0,318.5,1.7,2.5,332.4,0.00,18.9,24.3,"03:53:28",1
"17/08/27","04:10",0.0,20.0,94.4,1009.0,325.0,2.0,2.9,331.9,0.00,19.1,24.4,"04:06:16",1
"17/08/27","04:20",0.0,20.1,94.2,1009.0,323.9,2.0,2.9,311.3,0.00,19.2,24.3,"04:17:44",1
"17/08/27","04:30",0.0,20.1,93.9,1009.3,329.1,1.7,2.9,333.2,0.00,19.1,24.4,"04:22:56",1
"17/08/27","04:40",0.0,20.1,93.6,1009.0,330.1,1.7,2.9,326.9,0.00,19.1,24.4,"04:39:12",1
"17/08/27","04:50",0.0,20.1,93.4,1009.5,322.7,2.1,3.3,326.6,0.00,19.0,24.4,"04:45:52",1
"17/08/27","05:00",0.0,20.1,93.2,1009.3,317.8,1.8,3.1,328.4,0.00,19.0,24.2,"04:58:16",1
"17/08/27","05:10",0.0,20.0,92.9,1009.7,311.1,1.3,2.2,335.6,0.00,18.9,24.2,"05:00:40",1
"17/08/27","05:20",0.0,19.8,92.9,1009.7,295.5,1.2,2.0,309.2,0.00,18.7,24.1,"05:16:32",1
"17/08/27","05:30",0.0,19.7,92.8,1010.0,301.1,1.2,1.9,326.5,0.00,18.5,24.2,"05:26:08",1
"17/08/27","05:40",0.0,19.6,93.1,1010.0,291.9,1.1,1.9,307.7,0.00,18.5,23.9,"05:39:20",1
"17/08/27","05:50",0.2,19.6,93.5,1010.2,306.3,1.7,2.9,329.7,0.00,18.6,24.0,"05:47:12",1
"17/08/27","06:00",0.0,20.0,93.1,1010.2,327.3,2.2,4.1,318.7,0.00,18.9,24.0,"05:55:20",1
"17/08/27","06:10",0.0,20.3,92.7,1009.7,330.5,2.3,4.0,326.3,0.00,19.1,24.0,"06:00:16",1
"17/08/27","06:20",0.0,20.7,91.8,1009.7,331.8,2.2,4.0,330.5,0.00,19.4,24.0,"06:11:36",1
"17/08/27","06:30",0.0,21.2,90.7,1010.0,330.7,2.0,3.5,329.1,0.01,19.7,23.8,"06:22:32",1
"17/08/27","06:40",0.0,21.9,87.2,1010.4,328.8,2.0,3.4,336.0,0.02,19.7,24.1,"06:31:36",1
"17/08/27","06:50",0.0,22.6,83.8,1010.2,325.5,1.7,3.1,335.8,0.04,19.8,24.1,"06:49:28",1
"17/08/27","07:00",0.0,23.4,81.3,1010.2,326.4,1.5,2.6,335.1,0.07,20.1,24.0,"06:57:04",1
"17/08/27","07:10",0.0,24.1,79.1,1010.2,310.6,1.1,2.7,343.2,0.09,20.3,24.3,"07:02:08",1
"17/08/27","07:20",0.0,24.4,77.7,1010.2,317.1,1.2,2.2,342.9,0.12,20.3,24.2,"07:15:52",1
"17/08/27","07:30",0.0,25.2,75.6,1010.2,332.2,0.7,2.5,348.1,0.14,20.6,24.4,"07:24:48",1
"17/08/27","07:40",0.0,25.6,73.6,1010.0,303.0,0.5,1.7,251.3,0.17,20.6,24.6,"07:37:20",1
"17/08/27","07:50",0.0,25.9,72.1,1009.7,304.8,0.6,1.9,336.0,0.20,20.5,24.8,"07:42:08",1
"17/08/27","08:00",0.0,26.2,70.5,1009.7,233.0,0.8,2.5,233.7,0.22,20.5,24.7,"07:56:40",1
"17/08/27","08:10",0.0,27.3,64.5,1009.5,12.8,0.7,2.0,317.5,0.25,20.1,25.1,"08:04:08",1
"17/08/27","08:20",0.0,27.9,60.8,1009.3,6.9,0.7,1.6,357.5,0.27,19.7,25.2,"08:14:08",1
"17/08/27","08:30",0.0,28.0,60.1,1009.0,354.8,1.1,2.5,353.4,0.30,19.6,25.4,"08:27:36",1
"17/08/27","08:40",0.0,28.4,57.7,1009.5,322.7,0.5,1.6,4.9,0.32,19.3,25.5,"08:39:12",1
"17/08/27","08:50",0.0,28.4,59.5,1009.7,2.8,1.0,2.0,337.9,0.34,19.8,25.6,"08:40:08",1
"17/08/27","09:00",0.0,28.9,54.1,1009.7,92.2,0.7,1.7,144.8,0.36,18.7,25.8,"08:51:12",1
"17/08/27","09:10",0.0,29.4,53.4,1010.0,116.3,0.6,1.6,110.5,0.39,19.0,26.1,"09:08:48",1
"17/08/27","09:20",0.0,29.4,55.1,1010.4,121.3,0.7,1.4,107.9,0.41,19.5,26.2,"09:14:24",1
"17/08/27","09:30",0.0,29.5,53.3,1010.7,98.7,0.7,1.7,117.0,0.43,19.0,26.2,"09:22:32",1
"17/08/27","09:40",0.0,29.4,52.1,1010.7,126.0,0.7,1.4,121.2,0.44,18.6,26.8,"09:39:04",1
"17/08/27","09:50",0.0,29.6,52.2,1010.7,88.0,0.7,1.9,71.4,0.45,18.8,26.9,"09:44:56",1
"17/08/27","10:00",0.0,29.8,48.6,1010.4,32.1,0.8,1.8,39.1,0.46,17.9,27.1,"09:53:04",1
"17/08/27","10:10",0.0,30.0,49.4,1010.2,139.7,0.7,1.9,221.0,0.48,18.3,27.4,"10:07:20",1
"17/08/27","10:20",0.0,29.6,48.8,1010.0,171.1,1.3,4.3,227.1,0.50,17.7,27.7,"10:19:20",1
"17/08/27","10:30",0.0,29.6,50.0,1010.0,203.4,1.7,3.2,205.6,0.51,18.1,28.0,"10:25:28",1
"17/08/27","10:40",0.0,30.3,49.5,1009.7,320.4,0.6,2.6,355.0,0.53,18.6,28.0,"10:39:20",1
"17/08/27","10:50",0.0,30.7,49.3,1010.0,139.1,0.7,2.2,17.8,0.54,18.9,28.4,"10:40:32",1
"17/08/27","11:00",0.0,30.8,48.7,1010.0,118.7,1.1,2.0,77.7,0.55,18.8,28.7,"10:50:08",1
"17/08/27","11:10",0.0,30.7,47.1,1010.2,131.3,1.1,2.8,123.6,0.56,18.2,29.0,"11:03:12",1
"17/08/27","11:20",0.0,30.7,47.7,1010.0,210.1,1.6,3.4,223.9,0.57,18.4,29.2,"11:17:04",1
"17/08/27","11:30",0.0,31.1,47.1,1010.0,176.2,1.2,3.2,131.3,0.56,18.5,29.4,"11:29:04",1
"17/08/27","11:40",0.0,31.6,40.8,1009.7,91.1,1.0,2.2,9.2,0.50,16.7,29.6,"11:39:20",1
"17/08/27","11:50",0.0,31.2,41.1,1009.7,158.2,0.8,2.0,223.9,0.46,16.5,29.7,"11:48:24",1
"17/08/27","12:00",0.0,31.6,44.2,1009.7,174.0,1.0,1.9,135.6,0.51,18.0,30.0,"11:57:44",1
"17/08/27","12:10",0.0,31.8,39.9,1009.7,123.8,1.0,2.6,135.4,0.52,16.5,30.5,"12:00:08",1
"17/08/27","12:20",0.0,32.0,41.8,1010.0,114.7,1.1,2.8,130.7,0.54,17.5,30.3,"12:19:28",1
"17/08/27","12:30",0.0,31.7,43.6,1009.5,126.8,1.5,3.3,125.5,0.51,17.9,30.5,"12:22:08",1
"17/08/27","12:40",0.0,32.2,38.8,1009.7,65.2,1.0,2.2,126.9,0.52,16.5,30.4,"12:31:04",1
"17/08/27","12:50",0.0,32.1,38.5,1009.3,179.9,1.2,2.5,218.9,0.52,16.2,30.8,"12:42:00",1
"17/08/27","13:00",0.0,32.2,36.6,1009.7,128.1,1.1,1.9,127.1,0.50,15.5,31.1,"12:58:40",1
"17/08/27","13:10",0.0,32.6,36.8,1009.7,132.2,1.1,2.1,137.4,0.53,16.0,31.3,"13:00:32",1
"17/08/27","13:20",0.0,32.7,37.7,1009.5,29.1,0.8,2.1,73.8,0.53,16.4,31.4,"13:13:28",1
"17/08/27","13:30",0.0,32.8,33.2,1009.3,148.5,1.0,2.6,129.1,0.51,14.6,31.3,"13:23:20",1
"17/08/27","13:40",0.0,33.4,31.1,1009.3,78.0,0.7,2.1,122.6,0.50,14.1,31.7,"13:33:04",1
"17/08/27","13:50",0.0,33.2,28.0,1009.3,352.5,1.0,2.2,0.5,0.51,12.3,31.6,"13:41:20",1
"17/08/27","14:00",0.0,33.5,28.9,1009.0,330.9,1.1,3.2,343.9,0.50,13.0,31.7,"13:53:28",1
"17/08/27","14:10",0.0,33.7,30.0,1009.0,314.1,0.8,2.5,349.1,0.49,13.8,31.7,"14:06:16",1
"17/08/27","14:20",0.0,34.3,27.0,1009.0,226.7,0.6,2.2,338.7,0.47,12.7,31.7,"14:10:24",1
"17/08/27","14:30",0.0,33.7,31.8,1009.0,312.9,1.0,2.0,321.9,0.46,14.7,31.6,"14:22:16",1
"17/08/27","14:40",0.0,33.7,31.8,1008.8,284.0,1.1,4.2,215.0,0.43,14.7,31.7,"14:39:04",1
"17/08/27","14:50",0.0,33.6,35.8,1008.8,210.4,1.2,2.8,236.1,0.41,16.4,31.4,"14:41:28",1
"17/08/27","15:00",0.0,33.4,32.9,1008.3,299.5,1.0,2.6,224.9,0.39,14.9,31.6,"14:53:20",1
"17/08/27","15:10",0.0,33.5,36.2,1008.3,261.4,0.7,2.7,334.9,0.38,16.5,31.4,"15:06:32",1
"17/08/27","15:20",0.0,33.6,35.9,1008.1,280.5,0.8,2.7,349.1,0.36,16.5,31.4,"15:11:28",1
"17/08/27","15:30",0.0,33.7,31.8,1007.8,208.7,1.0,2.1,157.2,0.33,14.7,31.3,"15:27:36",1
"17/08/27","15:40",0.0,33.9,28.5,1007.8,218.9,1.3,2.8,183.6,0.31,13.2,31.4,"15:37:12",1
"17/08/27","15:50",0.0,33.8,32.5,1007.4,244.3,1.3,3.6,222.2,0.28,15.1,31.2,"15:43:52",1
"17/08/27","16:00",0.0,33.8,32.2,1007.6,254.2,0.8,2.1,227.8,0.25,14.9,31.3,"15:52:08",1
"17/08/27","16:10",0.0,33.7,34.5,1007.1,233.9,1.0,3.1,226.7,0.24,15.9,31.1,"16:02:08",1
"17/08/27","16:20",0.0,33.7,31.2,1007.1,247.2,1.0,2.8,215.8,0.21,14.4,31.2,"16:16:16",1
"17/08/27","16:30",0.0,33.6,31.5,1007.1,247.1,1.0,2.9,227.1,0.19,14.4,31.1,"16:28:56",1
"17/08/27","16:40",0.0,33.3,33.5,1007.4,252.0,0.8,3.3,216.1,0.16,15.1,30.8,"16:32:56",1
"17/08/27","16:50",0.0,33.2,32.7,1007.1,280.1,0.7,2.2,230.7,0.13,14.7,30.6,"16:48:32",1
"17/08/27","17:00",0.0,33.3,33.1,1007.4,274.7,0.3,1.1,225.6,0.12,14.9,30.7,"16:52:40",1
"17/08/27","17:10",0.0,33.5,39.9,1007.4,323.9,0.6,1.7,337.0,0.10,18.1,30.4,"17:02:24",1
"17/08/27","17:20",0.0,33.1,41.6,1007.4,41.3,0.6,1.9,24.4,0.07,18.4,30.5,"17:12:16",1
"17/08/27","17:30",0.0,32.4,41.2,1007.1,313.4,0.3,1.1,349.9,0.04,17.6,30.2,"17:22:08",1
"17/08/27","17:40",0.0,31.0,48.3,1006.7,334.1,0.8,1.9,339.7,0.02,18.8,30.3,"17:36:16",1
"17/08/27","17:50",0.0,29.8,53.0,1006.7,165.5,0.3,1.3,107.1,0.01,19.2,30.0,"17:40:02",1
"17/08/27","18:00",0.0,29.5,55.3,1006.0,30.0,1.0,2.4,352.8,0.00,19.6,29.8,"17:57:28",1
"17/08/27","18:10",0.0,29.6,57.4,1006.2,47.2,0.7,1.7,6.7,0.00,20.3,29.7,"18:01:28",1
"17/08/27","18:20",0.0,28.8,56.1,1006.0,294.9,0.6,1.9,345.4,0.00,19.2,29.5,"18:16:16",1
"17/08/27","18:30",0.0,27.8,61.1,1005.7,314.5,0.5,1.6,239.7,0.00,19.7,29.3,"18:27:52",1
"17/08/27","18:40",0.0,27.1,62.9,1006.9,328.6,0.5,1.3,332.7,0.00,19.5,29.2,"18:30:56",1
"17/08/27","18:50",0.0,26.7,64.0,1006.9,273.8,0.5,1.0,262.6,0.00,19.4,29.0,"18:49:28",1
"17/08/27","19:00",0.0,26.3,65.3,1006.7,287.7,0.6,1.3,303.5,0.00,19.3,28.9,"18:57:12",1
"17/08/27","19:10",0.0,26.2,67.0,1006.9,302.1,0.5,1.1,309.8,0.00,19.6,28.7,"19:05:44",1
"17/08/27","19:20",0.0,26.1,68.2,1007.4,330.3,1.1,2.4,315.8,0.00,19.8,28.7,"19:18:24",1
"17/08/27","19:30",0.0,26.0,69.3,1007.4,325.7,1.0,2.6,336.6,0.00,20.0,28.4,"19:21:52",1
"17/08/27","19:40",0.0,25.7,70.1,1007.6,307.2,0.8,1.7,301.5,0.00,19.9,28.4,"19:36:40",1
"17/08/27","19:50",0.0,25.6,70.7,1007.8,285.5,1.0,2.9,312.8,0.00,19.9,28.3,"19:42:00",1
"17/08/27","20:00",0.0,25.4,71.8,1007.6,284.3,0.7,1.6,345.9,0.00,20.0,28.3,"19:53:44",1
"17/08/27","20:10",0.0,25.2,73.3,1008.3,280.4,0.8,1.6,293.4,0.00,20.1,28.0,"20:05:52",1
"17/08/27","20:20",0.0,25.2,74.5,1008.1,300.4,1.1,2.1,317.6,0.00,20.4,28.1,"20:18:24",1
"17/08/27","20:30",0.0,25.1,76.0,1008.3,341.7,1.0,1.7,338.4,0.00,20.6,27.8,"20:23:04",1
"17/08/27","20:40",0.0,24.9,77.4,1008.3,294.4,0.8,1.6,307.1,0.00,20.7,27.8,"20:37:12",1
"17/08/27","20:50",0.0,24.6,78.4,1008.3,310.3,0.7,1.4,296.6,0.00,20.6,27.7,"20:40:24",1
"17/08/27","21:00",0.0,24.6,78.2,1008.6,296.4,0.7,1.4,328.5,0.00,20.6,27.5,"20:58:24",1
"17/08/27","21:10",0.0,24.5,78.7,1008.6,277.0,1.0,1.4,300.3,0.00,20.6,27.4,"21:05:12",1
"17/08/27","21:20",0.0,24.4,79.2,1008.6,279.1,1.0,1.4,271.9,0.00,20.6,27.4,"21:17:04",1
"17/08/27","21:30",0.0,24.4,79.4,1008.3,281.4,1.0,2.1,260.5,0.00,20.6,27.3,"21:25:20",1
"17/08/27","21:40",0.0,24.2,79.9,1008.6,306.4,1.0,1.7,315.9,0.00,20.6,27.2,"21:37:52",1
"17/08/27","21:50",0.0,24.1,80.7,1008.8,313.3,1.3,2.1,332.6,0.00,20.6,27.1,"21:46:16",1
"17/08/27","22:00",0.0,24.0,81.2,1008.8,285.0,1.0,1.8,307.3,0.00,20.6,26.9,"21:58:24",1
"17/08/27","22:10",0.0,23.9,82.0,1008.8,304.3,1.2,1.9,309.9,0.00,20.7,26.8,"22:05:48",1
"17/08/27","22:20",0.0,23.9,82.2,1008.8,323.4,1.2,2.2,337.9,0.00,20.7,27.0,"22:18:48",1
"17/08/27","22:30",0.0,23.8,82.4,1008.6,313.9,1.1,1.8,313.2,0.00,20.7,26.9,"22:20:40",1
"17/08/27","22:40",0.0,23.8,82.9,1008.6,306.0,1.3,1.9,322.6,0.00,20.8,26.7,"22:33:44",1
"17/08/27","22:50",0.0,23.6,83.4,1008.6,295.0,1.1,1.6,325.6,0.00,20.7,26.7,"22:45:20",1
"17/08/27","23:00",0.0,23.6,83.9,1008.3,311.5,1.2,2.1,324.3,0.00,20.8,26.6,"22:55:52",1
"17/08/27","23:10",0.0,23.4,84.5,1008.8,291.3,0.7,1.6,313.3,0.00,20.7,26.6,"23:08:56",1
"17/08/27","23:20",0.0,23.3,85.4,1008.8,314.4,1.1,2.1,322.3,0.00,20.8,26.4,"23:10:32",1
"17/08/27","23:30",0.0,23.2,86.0,1008.3,324.2,1.2,1.7,316.6,0.00,20.8,26.3,"23:26:48",1
"17/08/27","23:40",0.0,23.0,86.7,1008.8,310.8,0.6,1.7,325.3,0.00,20.7,26.3,"23:38:56",1
"17/08/27","23:50",0.0,22.9,87.2,1008.3,318.1,1.3,2.1,319.5,0.00,20.7,26.3,"23:48:56",1
"17/08/27","24:00",0.0,22.8,87.6,1008.8,316.8,1.1,1.6,305.4,0.00,20.7,26.2,"23:50:16",1
